{"data":{"norad_id":58419,"intl_designator":"2023-180T","name":"STARLINK-30917","alt_names":[],"object_type":"PAYLOAD","status":"ACTIVE","operator":null,"country":"US","launch_date":"2023-11-22","launch_site_code":"AFETR","launch_vehicle":null,"mission":null,"orbit_class":"UNKNOWN","rcs_meters":null,"size_class":null,"mass_kg":null,"dimensions":null,"purposes":["comms"],"wikipedia_slug":null,"has_3d_model":false,"image_url":null,"decayed_at":null,"tle_current":{"epoch":"2026-05-24T15:33:34.060896Z","epoch_age_seconds":105404,"freshness":"FRESH","line1":"1 58419U 23180T   26144.64831089  .00000921  00000+0  43018-4 0  9998","line2":"2 58419  43.0048 234.7876 0001800 277.6219  82.4428 15.27570554140518","mean_motion":15.27570554,"eccentricity":0.00018,"inclination_deg":43.0048,"raan_deg":234.7876,"arg_perigee_deg":277.6219,"mean_anomaly_deg":82.4428,"bstar":4.3018e-5,"rev_number":14051,"period_min":94.267331628599,"perigee_km":481.84236231902,"apogee_km":484.31239949615,"semimajor_km":6861.2143809076,"source":"CELESTRAK","updated_at":"2026-05-25T13:38:18.620158Z"}}}